Zurück zum Katalog

STARLINK-3896

AktivKommunikationVLEO
NORAD 52456·PAYLOAD·🇺🇸 United States

Gestartet May 6, 2022 von Cape Canaveral Space Force Station

Loading…

Nächste Überflüge (nächste 24 Stunden)

TLE

AktuellSource: CelesTrak SupGP

Epoche: Sep 15, 2026, 01:09 UTC

1 52456C 22049F   26258.04840278  .00040900  00000+0  13152-2 0  2589
2 52456  53.1582 293.2761 0001139  92.7329 230.3263 15.31683724    14

Verfolge STARLINK-3896 in Echtzeit mit AllMySat

Download on the App Store